El Dorado, AR

4:05 AM CDT on March 24, 2017 (GMT -0500)
South Arkansas Regional At Goodwin

Weather History for KELD - March, 2012

Change the Weather History Date:

Saturday, March 10, 2012

  Actual Average Record
Temperature  
Mean Temperature 52 °F 54 °F  
Max Temperature 68 °F 66 °F 86 °F (1916)
Min Temperature 36 °F 42 °F 17 °F (1996)
Degree Days  
Heating Degree Days 13 11  
Month to date heating degree days 87 125  
Since 1 July heating degree days 2154 2353  
Cooling Degree Days 0 1  
Month to date cooling degree days 4 1  
Year to date cooling degree days 6 7  
Growing Degree Days 1 (Base 50)    
Moisture  
Dew Point 35 °F    
Average Humidity 63    
Maximum Humidity 100    
Minimum Humidity 26    
Precipitation  
Precipitation T in 0.16 in 1.98 in (1953)
Month to date precipitation 2.31 1.64  
Year to date precipitation 7.51 10.73  
Snow  
Snow 0.00 in - - ()
Month to date snowfall 0.0  
Since 1 July snowfall T  
Snow Depth 0.00 in    
Sea Level Pressure  
Sea Level Pressure 30.29 in    
Wind  
Wind Speed 6 mph (ENE)    
Max Wind Speed 15 mph    
Max Gust Speed 21 mph    
Visibility 10 miles    
Events      
T = Trace of Precipitation, MM = Missing Value Source: NWS Daily Summary

Daily Weather History Graph

Daily Weather History Graph

Search for Another Location

Airport or City:

Trip Planner

Search our weather history database for the weather conditions in past years. The results will help you decide how hot, cold, wet, or windy it might be!

Date:

Astronomy

Mar. 10, 2012 Rise Set
Actual Time 6:27 AM CST 6:15 PM CST
Civil Twilight 6:02 AM CST 6:40 PM CST
Nautical Twilight 5:34 AM CST 7:09 PM CST
Astronomical Twilight 5:05 AM CST 7:38 PM CST
Moon 9:14 PM CST (3/10) 7:34 AM CST (3/10)
Length of Visible Light 12h 37m
Length of Day
11h 48m
Waning Gibbous, 92% of the Moon is Illuminated
Mar 10
Waning Gibbous
Mar 14
Last Quarter
Mar 22
New
Mar 30
First Quarter
Apr 6
Full

Hourly Weather History & Observations

Time (CST) Temp. Windchill Dew Point Humidity Pressure Visibility Wind Dir Wind Speed Gust Speed Precip Events Conditions
12:53 AM 44.1 °F 39.5 °F 36.0 °F 73% 30.36 in 10.0 mi NE 8.1 mph - N/A   Clear
1:53 AM 45.0 °F 40.6 °F 35.1 °F 68% 30.34 in 10.0 mi NE 8.1 mph - N/A   Clear
2:53 AM 43.0 °F 40.3 °F 35.1 °F 74% 30.32 in 10.0 mi NNE 4.6 mph - N/A   Clear
3:53 AM 39.9 °F - 35.1 °F 83% 30.33 in 10.0 mi Calm Calm - N/A   Clear
4:53 AM 36.0 °F - 35.1 °F 97% 30.34 in 10.0 mi Calm Calm - N/A   Clear
5:53 AM 39.9 °F - 34.0 °F 79% 30.36 in 10.0 mi Calm Calm - N/A   Clear
6:53 AM 37.0 °F - 35.1 °F 93% 30.38 in 10.0 mi Calm Calm - N/A   Clear
7:53 AM 44.1 °F 42.5 °F 35.1 °F 71% 30.40 in 10.0 mi ENE 3.5 mph - N/A   Clear
8:53 AM 51.1 °F - 34.0 °F 52% 30.40 in 10.0 mi ENE 8.1 mph - N/A   Clear
9:53 AM 55.0 °F - 34.0 °F 45% 30.40 in 10.0 mi East 8.1 mph - N/A   Clear
10:53 AM 57.9 °F - 35.1 °F 42% 30.37 in 10.0 mi ENE 12.7 mph - N/A   Clear
11:53 AM 61.0 °F - 33.1 °F 35% 30.33 in 10.0 mi East 9.2 mph 19.6 mph N/A   Clear
12:53 PM 64.0 °F - 32.0 °F 30% 30.28 in 10.0 mi ESE 12.7 mph - N/A   Clear
1:53 PM 64.9 °F - 32.0 °F 29% 30.24 in 10.0 mi East 10.4 mph 16.1 mph N/A   Clear
2:53 PM 66.9 °F - 30.0 °F 25% 30.22 in 10.0 mi ENE 8.1 mph - N/A   Clear
3:53 PM 66.0 °F - 32.0 °F 28% 30.22 in 10.0 mi East 6.9 mph - N/A   Clear
4:53 PM 64.9 °F - 30.0 °F 27% 30.20 in 10.0 mi East 6.9 mph - N/A   Mostly Cloudy
5:53 PM 62.1 °F - 30.9 °F 31% 30.20 in 10.0 mi East 5.8 mph - N/A   Scattered Clouds
6:53 PM 61.0 °F - 32.0 °F 34% 30.19 in 10.0 mi East 9.2 mph - N/A   Clear
7:53 PM 60.1 °F - 37.0 °F 42% 30.21 in 10.0 mi East 9.2 mph - N/A   Mostly Cloudy
8:53 PM 57.9 °F - 39.0 °F 49% 30.20 in 10.0 mi East 4.6 mph - N/A   Clear
9:53 PM 57.0 °F - 39.9 °F 53% 30.22 in 10.0 mi East 3.5 mph - N/A   Scattered Clouds
10:53 PM 57.0 °F - 41.0 °F 55% 30.24 in 10.0 mi NE 3.5 mph - N/A   Overcast
11:53 PM 55.9 °F - 41.0 °F 57% 30.20 in 10.0 mi East 9.2 mph - 0.00 in   Overcast